SWA2976 KLGB-KSMF

Flight info

Callsign SWA2976
Flight time 1h 1m
Altitude 38000
Route TOPMM5 CSTRO NURAY SUUTR4
Aircraft B737/M-SADE2E3GIJ4RWZ/LB1D1

Departure

Time 2026-05-03 23:27
Airport Long Beach International Airport (KLGB)

Arrival

Time 2026-05-04 00:28
Airport Sacramento International Airport (KSMF)
Time Latitude Longitude Altitude Speed Heading
2026-05-03 22:51 33.81861 -118.14600 27 ft 0 kts 85°
2026-05-03 23:12 33.81860 -118.14606 28 ft 4 kts 85°
2026-05-03 23:13 33.81858 -118.14638 28 ft 4 kts 85°
2026-05-03 23:13 33.81855 -118.14669 27 ft 4 kts 85°
2026-05-03 23:13 33.81853 -118.14702 27 ft 4 kts 85°
2026-05-03 23:13 33.81853 -118.14707 27 ft 0 kts 85°
2026-05-03 23:16 33.81853 -118.14706 27 ft 0 kts 85°
2026-05-03 23:16 33.81853 -118.14705 27 ft 0 kts 85°
2026-05-03 23:17 33.81849 -118.14699 27 ft 2 kts 131°
2026-05-03 23:17 33.81819 -118.14689 27 ft 7 kts 173°
2026-05-03 23:18 33.81781 -118.14686 27 ft 5 kts 180°
2026-05-03 23:18 33.81726 -118.14686 27 ft 8 kts 180°
2026-05-03 23:18 33.81693 -118.14686 27 ft 2 kts 182°
2026-05-03 23:18 33.81684 -118.14688 28 ft 2 kts 188°
2026-05-03 23:19 33.81653 -118.14696 28 ft 7 kts 192°
2026-05-03 23:19 33.81596 -118.14694 28 ft 10 kts 158°
2026-05-03 23:19 33.81521 -118.14638 27 ft 15 kts 137°
2026-05-03 23:19 33.81449 -118.14551 27 ft 15 kts 134°
2026-05-03 23:20 33.81380 -118.14467 27 ft 14 kts 135°
2026-05-03 23:20 33.81313 -118.14387 27 ft 13 kts 135°
2026-05-03 23:20 33.81249 -118.14310 28 ft 13 kts 135°
2026-05-03 23:20 33.81187 -118.14235 28 ft 12 kts 135°
2026-05-03 23:21 33.81128 -118.14162 28 ft 12 kts 133°
2026-05-03 23:21 33.81072 -118.14091 29 ft 11 kts 134°
2026-05-03 23:21 33.81017 -118.14025 29 ft 11 kts 135°
2026-05-03 23:21 33.80964 -118.13963 29 ft 10 kts 136°
2026-05-03 23:22 33.80863 -118.13845 29 ft 10 kts 135°
2026-05-03 23:22 33.80820 -118.13793 29 ft 6 kts 135°
2026-05-03 23:22 33.80789 -118.13760 29 ft 6 kts 147°
2026-05-03 23:23 33.80766 -118.13756 30 ft 2 kts 181°
2026-05-03 23:23 33.80759 -118.13758 30 ft 0 kts 197°
2026-05-03 23:25 33.80753 -118.13761 30 ft 6 kts 204°
2026-05-03 23:26 33.80708 -118.13822 29 ft 11 kts 264°
2026-05-03 23:26 33.80803 -118.13964 30 ft 57 kts 315°
2026-05-03 23:26 33.81324 -118.14592 26 ft 150 kts 314°
2026-05-03 23:26 33.82167 -118.15613 579 ft 184 kts 314°
2026-05-03 23:27 33.83086 -118.16740 1763 ft 191 kts 309°
2026-05-03 23:27 33.84026 -118.17967 2570 ft 206 kts 308°
2026-05-03 23:27 33.84977 -118.19232 2893 ft 205 kts 304°
2026-05-03 23:27 33.85567 -118.20753 2980 ft 203 kts 276°
2026-05-03 23:28 33.85880 -118.22422 3227 ft 206 kts 282°
2026-05-03 23:28 33.86120 -118.24140 4063 ft 210 kts 276°
2026-05-03 23:28 33.86359 -118.25935 4984 ft 229 kts 279°
2026-05-03 23:28 33.86738 -118.27951 5490 ft 268 kts 280°
2026-05-03 23:29 33.87187 -118.30173 6816 ft 274 kts 280°
2026-05-03 23:29 33.87639 -118.32401 8382 ft 273 kts 280°
2026-05-03 23:29 33.88088 -118.34636 9835 ft 277 kts 279°
2026-05-03 23:29 33.88538 -118.36912 11111 ft 282 kts 279°
2026-05-03 23:30 33.88994 -118.39234 12390 ft 288 kts 279°
2026-05-03 23:30 33.89458 -118.41601 13700 ft 293 kts 279°
2026-05-03 23:30 33.90242 -118.43894 14659 ft 305 kts 298°
2026-05-03 23:30 33.91786 -118.45676 14960 ft 315 kts 321°
2026-05-03 23:31 33.93717 -118.47022 14992 ft 324 kts 326°
2026-05-03 23:31 33.95700 -118.48278 14998 ft 322 kts 327°
2026-05-03 23:31 33.97669 -118.49537 14999 ft 321 kts 326°
2026-05-03 23:31 33.99659 -118.50766 14995 ft 323 kts 331°
2026-05-03 23:32 34.01725 -118.51769 14995 ft 325 kts 334°
2026-05-03 23:32 34.03846 -118.52733 15052 ft 329 kts 334°
2026-05-03 23:32 34.06022 -118.53747 15922 ft 333 kts 333°
2026-05-03 23:32 34.08166 -118.54765 17379 ft 328 kts 331°
2026-05-03 23:33 34.10302 -118.55781 18580 ft 333 kts 332°
2026-05-03 23:33 34.12544 -118.56673 19632 ft 340 kts 334°
2026-05-03 23:33 34.14818 -118.57482 20660 ft 346 kts 334°
2026-05-03 23:33 34.17150 -118.58289 21711 ft 351 kts 333°
2026-05-03 23:34 34.19508 -118.59108 22794 ft 355 kts 331°
2026-05-03 23:34 34.21894 -118.59949 23792 ft 359 kts 330°
2026-05-03 23:34 34.24269 -118.60793 24676 ft 362 kts 330°
2026-05-03 23:34 34.26701 -118.61662 25591 ft 365 kts 329°
2026-05-03 23:35 34.29140 -118.62538 26478 ft 368 kts 329°
2026-05-03 23:35 34.31613 -118.63430 27312 ft 373 kts 329°
2026-05-03 23:35 34.34111 -118.64328 28186 ft 376 kts 329°
2026-05-03 23:35 34.36632 -118.65236 29057 ft 379 kts 328°
2026-05-03 23:36 34.39031 -118.66104 29836 ft 383 kts 329°
2026-05-03 23:36 34.41603 -118.67039 30508 ft 388 kts 329°
2026-05-03 23:36 34.44263 -118.67885 30979 ft 406 kts 334°
2026-05-03 23:36 34.47115 -118.68511 31169 ft 426 kts 338°
2026-05-03 23:37 34.50109 -118.69053 31314 ft 443 kts 339°
2026-05-03 23:37 34.53207 -118.69584 31479 ft 456 kts 339°
2026-05-03 23:37 34.56372 -118.70138 31782 ft 463 kts 339°
2026-05-03 23:37 34.59582 -118.70734 32189 ft 467 kts 339°
2026-05-03 23:38 34.62794 -118.71346 32782 ft 467 kts 339°
2026-05-03 23:38 34.65947 -118.71956 33439 ft 463 kts 339°
2026-05-03 23:38 34.69165 -118.72590 34022 ft 461 kts 338°
2026-05-03 23:38 34.72232 -118.73374 34403 ft 448 kts 328°
2026-05-03 23:39 34.74953 -118.74980 34819 ft 429 kts 318°
2026-05-03 23:39 34.77529 -118.76786 35300 ft 427 kts 318°
2026-05-03 23:39 34.80098 -118.78602 35688 ft 428 kts 318°
2026-05-03 23:39 34.82687 -118.80414 36043 ft 429 kts 319°
2026-05-03 23:40 34.85274 -118.82205 36546 ft 427 kts 319°
2026-05-03 23:40 34.87855 -118.84002 36972 ft 428 kts 319°
2026-05-03 23:40 34.90442 -118.85799 37367 ft 428 kts 319°
2026-05-03 23:40 34.93029 -118.87595 37777 ft 428 kts 319°
2026-05-03 23:41 34.95621 -118.89387 37913 ft 429 kts 319°
2026-05-03 23:41 34.98216 -118.91175 37929 ft 428 kts 319°
2026-05-03 23:41 35.03405 -118.94752 37921 ft 429 kts 319°
2026-05-03 23:42 35.08600 -118.98340 37918 ft 430 kts 319°
2026-05-03 23:42 35.13804 -119.01941 37911 ft 430 kts 319°
2026-05-03 23:43 35.19013 -119.05550 37944 ft 430 kts 319°
2026-05-03 23:43 35.24230 -119.09170 37910 ft 431 kts 320°
2026-05-03 23:44 35.29409 -119.12768 37897 ft 431 kts 320°
2026-05-03 23:44 35.34623 -119.16397 37895 ft 430 kts 320°
2026-05-03 23:45 35.39825 -119.20024 37911 ft 430 kts 319°
2026-05-03 23:45 35.45041 -119.23620 37897 ft 434 kts 323°
2026-05-03 23:46 35.50832 -119.26202 37912 ft 447 kts 332°
2026-05-03 23:46 35.56779 -119.28430 37907 ft 447 kts 332°
2026-05-03 23:47 35.62709 -119.30704 37916 ft 446 kts 330°
2026-05-03 23:47 35.68594 -119.33041 37908 ft 444 kts 330°
2026-05-03 23:48 35.74458 -119.35404 37910 ft 442 kts 330°
2026-05-03 23:48 35.80299 -119.37766 37915 ft 441 kts 330°
2026-05-03 23:49 35.86126 -119.40125 37917 ft 440 kts 330°
2026-05-03 23:49 35.91942 -119.42480 37916 ft 439 kts 330°
2026-05-03 23:50 35.96764 -119.44436 37917 ft 438 kts 330°
2026-05-03 23:50 36.03497 -119.47172 37924 ft 438 kts 330°
2026-05-03 23:51 36.09294 -119.49531 37916 ft 438 kts 330°
2026-05-03 23:51 36.15087 -119.51891 37913 ft 438 kts 330°
2026-05-03 23:52 36.20888 -119.54261 37942 ft 440 kts 330°
2026-05-03 23:52 36.26714 -119.56644 37914 ft 441 kts 330°
2026-05-03 23:53 36.32552 -119.59033 37908 ft 443 kts 330°
2026-05-03 23:53 36.38411 -119.61436 37915 ft 445 kts 332°
2026-05-03 23:54 36.44296 -119.63852 37917 ft 446 kts 332°
2026-05-03 23:54 36.50198 -119.66280 37911 ft 448 kts 332°
2026-05-03 23:55 36.56122 -119.68721 37935 ft 449 kts 332°
2026-05-03 23:55 36.61841 -119.71634 37927 ft 435 kts 320°
2026-05-03 23:56 36.66892 -119.75658 37921 ft 433 kts 317°
2026-05-03 23:56 36.71932 -119.79806 37915 ft 435 kts 318°
2026-05-03 23:57 36.77019 -119.83901 37929 ft 436 kts 319°
2026-05-03 23:57 36.82146 -119.87972 37917 ft 437 kts 319°
2026-05-03 23:58 36.86448 -119.91379 37914 ft 437 kts 319°
2026-05-03 23:58 36.91581 -119.95452 37938 ft 437 kts 320°
2026-05-03 23:59 36.96720 -119.99540 37925 ft 438 kts 320°
2026-05-03 23:59 36.99298 -120.01594 37663 ft 442 kts 319°
2026-05-03 23:59 37.01890 -120.03661 37056 ft 440 kts 319°
2026-05-04 00:00 37.04427 -120.05681 36392 ft 436 kts 319°
2026-05-04 00:00 37.07009 -120.07738 35662 ft 433 kts 319°
2026-05-04 00:00 37.09552 -120.09771 34845 ft 434 kts 320°
2026-05-04 00:00 37.12108 -120.11819 33969 ft 437 kts 319°
2026-05-04 00:01 37.14675 -120.13876 32920 ft 441 kts 320°
2026-05-04 00:01 37.17255 -120.15944 32199 ft 438 kts 321°
2026-05-04 00:01 37.19788 -120.17975 31514 ft 439 kts 322°
2026-05-04 00:01 37.22344 -120.20025 30829 ft 434 kts 322°
2026-05-04 00:02 37.24875 -120.22056 30191 ft 429 kts 323°
2026-05-04 00:02 37.27380 -120.24068 29444 ft 427 kts 325°
2026-05-04 00:02 37.29873 -120.26051 28614 ft 426 kts 327°
2026-05-04 00:02 37.32397 -120.28017 27957 ft 423 kts 327°
2026-05-04 00:03 37.34899 -120.29953 27344 ft 421 kts 327°
2026-05-04 00:03 37.37391 -120.31886 26751 ft 421 kts 328°
2026-05-04 00:03 37.39877 -120.33821 26148 ft 418 kts 327°
2026-05-04 00:03 37.42325 -120.35730 25553 ft 411 kts 328°
2026-05-04 00:04 37.44746 -120.37623 24969 ft 408 kts 329°
2026-05-04 00:04 37.47151 -120.39513 24376 ft 409 kts 328°
2026-05-04 00:04 37.49460 -120.41621 23800 ft 411 kts 322°
2026-05-04 00:04 37.51667 -120.43893 23138 ft 407 kts 320°
2026-05-04 00:05 37.53831 -120.46176 22494 ft 401 kts 320°
2026-05-04 00:05 37.55967 -120.48384 21911 ft 393 kts 321°
2026-05-04 00:05 37.58093 -120.50537 21338 ft 392 kts 321°
2026-05-04 00:05 37.60221 -120.52673 20793 ft 392 kts 322°
2026-05-04 00:06 37.62353 -120.54805 20426 ft 391 kts 322°
2026-05-04 00:06 37.64487 -120.56939 20048 ft 392 kts 322°
2026-05-04 00:06 37.66633 -120.59088 19660 ft 393 kts 321°
2026-05-04 00:06 37.68766 -120.61228 19267 ft 390 kts 321°
2026-05-04 00:07 37.70882 -120.63352 18887 ft 388 kts 321°
2026-05-04 00:07 37.72965 -120.65445 18517 ft 386 kts 321°
2026-05-04 00:07 37.75065 -120.67557 18111 ft 385 kts 321°
2026-05-04 00:07 37.77152 -120.69658 17685 ft 383 kts 321°
2026-05-04 00:08 37.79233 -120.71753 17290 ft 381 kts 321°
2026-05-04 00:08 37.81300 -120.73837 16911 ft 379 kts 320°
2026-05-04 00:08 37.83356 -120.75909 16522 ft 377 kts 320°
2026-05-04 00:08 37.85401 -120.77973 16152 ft 375 kts 320°
2026-05-04 00:09 37.87431 -120.80027 15802 ft 373 kts 320°
2026-05-04 00:09 37.89441 -120.82067 15477 ft 370 kts 320°
2026-05-04 00:09 37.91440 -120.84100 15130 ft 366 kts 320°
2026-05-04 00:09 37.93420 -120.86114 14768 ft 362 kts 320°
2026-05-04 00:10 37.95372 -120.88101 14414 ft 359 kts 320°
2026-05-04 00:10 37.97312 -120.90078 14070 ft 357 kts 320°
2026-05-04 00:10 37.99245 -120.92049 13715 ft 356 kts 320°
2026-05-04 00:10 38.01172 -120.94015 13314 ft 355 kts 320°
2026-05-04 00:11 38.03092 -120.95975 12951 ft 353 kts 320°
2026-05-04 00:11 38.04997 -120.97921 12590 ft 352 kts 320°
2026-05-04 00:11 38.06892 -120.99857 12268 ft 346 kts 320°
2026-05-04 00:11 38.08648 -121.01920 11900 ft 343 kts 311°
2026-05-04 00:12 38.10202 -121.04209 11545 ft 341 kts 308°
2026-05-04 00:12 38.11707 -121.06546 11215 ft 341 kts 308°
2026-05-04 00:12 38.13214 -121.08868 10873 ft 341 kts 308°
2026-05-04 00:12 38.14734 -121.11158 10531 ft 333 kts 309°
2026-05-04 00:13 38.16212 -121.13351 10199 ft 321 kts 309°
2026-05-04 00:13 38.17641 -121.15462 9942 ft 309 kts 309°
2026-05-04 00:13 38.19008 -121.17479 9685 ft 298 kts 309°
2026-05-04 00:13 38.20335 -121.19432 9309 ft 293 kts 310°
2026-05-04 00:14 38.21656 -121.21371 9021 ft 285 kts 310°
2026-05-04 00:14 38.23015 -121.23187 8908 ft 282 kts 314°
2026-05-04 00:14 38.24414 -121.24949 8798 ft 285 kts 315°
2026-05-04 00:14 38.25838 -121.26724 8689 ft 288 kts 315°
2026-05-04 00:15 38.27278 -121.28523 8558 ft 291 kts 315°
2026-05-04 00:15 38.28715 -121.30325 8454 ft 289 kts 315°
2026-05-04 00:15 38.30141 -121.32121 8345 ft 288 kts 315°
2026-05-04 00:15 38.31561 -121.33915 8235 ft 287 kts 315°
2026-05-04 00:16 38.32973 -121.35702 8131 ft 286 kts 315°
2026-05-04 00:16 38.34378 -121.37483 8022 ft 285 kts 315°
2026-05-04 00:16 38.35776 -121.39258 7917 ft 283 kts 315°
2026-05-04 00:16 38.37171 -121.41030 7800 ft 283 kts 315°
2026-05-04 00:17 38.38563 -121.42799 7702 ft 282 kts 315°
2026-05-04 00:17 38.39950 -121.44564 7604 ft 282 kts 315°
2026-05-04 00:17 38.41341 -121.46334 7490 ft 281 kts 316°
2026-05-04 00:17 38.42725 -121.48096 7384 ft 281 kts 316°
2026-05-04 00:18 38.44111 -121.49862 7281 ft 281 kts 316°
2026-05-04 00:18 38.45486 -121.51616 7173 ft 280 kts 315°
2026-05-04 00:18 38.46871 -121.53383 7065 ft 281 kts 316°
2026-05-04 00:18 38.48307 -121.55091 6895 ft 285 kts 322°
2026-05-04 00:19 38.49869 -121.56661 6679 ft 284 kts 324°
2026-05-04 00:19 38.51413 -121.58168 6458 ft 276 kts 324°
2026-05-04 00:19 38.52925 -121.59658 6245 ft 274 kts 324°
2026-05-04 00:19 38.54429 -121.61154 6031 ft 274 kts 324°
2026-05-04 00:20 38.55912 -121.62641 5830 ft 274 kts 322°
2026-05-04 00:20 38.57410 -121.64146 5603 ft 275 kts 323°
2026-05-04 00:20 38.59045 -121.65371 5380 ft 272 kts 342°
2026-05-04 00:20 38.60841 -121.66060 5182 ft 269 kts 346°
2026-05-04 00:21 38.62645 -121.66711 4976 ft 269 kts 346°
2026-05-04 00:21 38.64435 -121.67370 4776 ft 269 kts 344°
2026-05-04 00:21 38.66227 -121.68046 4561 ft 265 kts 343°
2026-05-04 00:21 38.67938 -121.68699 4368 ft 247 kts 343°
2026-05-04 00:22 38.69519 -121.69305 4168 ft 227 kts 343°
2026-05-04 00:22 38.70952 -121.69849 4041 ft 204 kts 345°
2026-05-04 00:22 38.72333 -121.69968 4012 ft 197 kts
2026-05-04 00:22 38.73708 -121.69916 4007 ft 198 kts
2026-05-04 00:23 38.75077 -121.69874 4002 ft 196 kts
2026-05-04 00:23 38.76421 -121.69821 3933 ft 190 kts
2026-05-04 00:23 38.77671 -121.69465 3650 ft 176 kts 21°
2026-05-04 00:23 38.78704 -121.68663 3156 ft 175 kts 41°
2026-05-04 00:24 38.79467 -121.67460 2691 ft 171 kts 63°
2026-05-04 00:24 38.79874 -121.66070 2365 ft 167 kts 81°
2026-05-04 00:24 38.79945 -121.64507 2166 ft 178 kts 97°
2026-05-04 00:24 38.79696 -121.63064 1903 ft 155 kts 117°
2026-05-04 00:25 38.79177 -121.61952 1706 ft 139 kts 134°
2026-05-04 00:25 38.78505 -121.61092 1540 ft 140 kts 147°
2026-05-04 00:25 38.77674 -121.60441 1374 ft 137 kts 162°
2026-05-04 00:25 38.76800 -121.60133 1249 ft 125 kts 178°
2026-05-04 00:26 38.75914 -121.60053 1108 ft 129 kts 182°
2026-05-04 00:26 38.75034 -121.60041 933 ft 128 kts 184°
2026-05-04 00:26 38.74137 -121.60051 767 ft 129 kts 185°
2026-05-04 00:26 38.73257 -121.60066 595 ft 126 kts 181°
2026-05-04 00:27 38.72378 -121.60065 453 ft 128 kts 177°
2026-05-04 00:27 38.71470 -121.60073 266 ft 131 kts 180°
2026-05-04 00:27 38.70628 -121.60105 90 ft 116 kts 177°
2026-05-04 00:27 38.70184 -121.60114 31 ft 104 kts 180°
2026-05-04 00:28 38.69899 -121.60119 25 ft 92 kts 181°
2026-05-04 00:28 38.69673 -121.60131 22 ft 79 kts 180°
2026-05-04 00:28 38.69512 -121.60129 21 ft 0 kts 179°
2026-05-04 00:28 38.69503 -121.60127 21 ft 12 kts 168°
2026-05-04 00:29 38.69429 -121.60055 22 ft 14 kts 142°
2026-05-04 00:29 38.69352 -121.59993 24 ft 12 kts 150°
2026-05-04 00:29 38.69277 -121.59937 24 ft 13 kts 141°
2026-05-04 00:29 38.69303 -121.59868 22 ft 10 kts 25°
2026-05-04 00:30 38.69352 -121.59862 22 ft 6 kts 357°
2026-05-04 00:30 38.69410 -121.59866 22 ft 13 kts 358°
2026-05-04 00:30 38.69464 -121.59803 22 ft 12 kts 86°
2026-05-04 00:30 38.69465 -121.59699 22 ft 12 kts 91°
2026-05-04 00:31 38.69486 -121.59613 22 ft 10 kts 37°
2026-05-04 00:31 38.69552 -121.59599 22 ft 10 kts
2026-05-04 00:31 38.69619 -121.59597 22 ft 10 kts 360°
2026-05-04 00:31 38.69680 -121.59581 22 ft 9 kts 46°
2026-05-04 00:32 38.69699 -121.59513 22 ft 8 kts 89°
2026-05-04 00:32 38.69698 -121.59442 22 ft 9 kts 91°
2026-05-04 00:32 38.69672 -121.59365 22 ft 7 kts 157°
2026-05-04 00:32 38.69646 -121.59361 22 ft 0 kts 180°
2026-05-04 00:33 38.69645 -121.59361 22 ft 0 kts 181°
2026-05-04 00:33 38.69629 -121.59361 22 ft 0 kts 182°